Location: Apeadero de Los Molinos-Guadarrama
(40.7091°N, 4.0689°W)
Time: 20:15:08
(UTC+00:00)

Tiangong - Pass Details

Date: 06 October 2021
Orbit: 382 x 385 km, 41.5° (Epoch: 18 October)

Event Time Altitude Azimuth Distance (km) Brightness Sun altitude
Exits shadow 05:14:07 24° 254° (WSW) 830 2.1 -12.9°
Maximum altitude 05:15:27 38° 203° (SSW) 600 1.8 -12.7°
Drops below altitude 10° 05:18:24 10° 133° (SE) 1,391 4.5 -12.1°
Sets 05:20:32 0° 125° (SE) 2,241 5.8 -11.7°
